AO-07 1 07530U 74089B 26246.52772061 -.00000053 00000-0 -41756-4 0 9990 2 07530 101.9921 260.5936 0012152 343.5499 183.3688 12.53699399370338 UO-11 1 14781U 84021B 26246.34444691 .00000813 00000-0 87973-4 0 9991 2 14781 97.8147 211.0902 0006107 290.6044 69.4519 14.90965871268777 LO-19 1 20442U 90005G 26246.53161013 .00000026 00000-0 25976-4 0 9997 2 20442 98.8833 270.4882 0011123 341.7577 18.3206 14.34141599913628 AO-27 1 22825U 93061C 26246.59376417 .00000031 00000-0 28854-4 0 9995 2 22825 98.6812 313.9524 0007580 224.6620 135.3952 14.30959123718218 FO-29 1 24278U 96046B 26246.16214900 -.00000040 00000-0 -18419-5 0 9995 2 24278 98.5181 84.3453 0348853 254.0426 102.2024 13.53277568483719 GO-32 1 25397U 98043D 26246.45519830 .00000011 00000-0 25077-4 0 9992 2 25397 99.0140 241.2127 0001595 34.3286 325.7995 14.24441079462475 ISS 1 25544U 98067A 26246.56303513 .00003925 00000-0 79431-4 0 9993 2 25544 51.6315 272.1807 0005017 103.2669 256.8879 15.48980167583909 NO-44 1 26931U 01043C 26245.89655315 .00000030 00000-0 42131-4 0 9998 2 26931 67.0507 43.2738 0005668 271.1600 88.8852 14.31980243301577 SO-50 1 27607U 02058C 26246.44033043 .00000550 00000-0 82640-4 0 9992 2 27607 64.5502 246.8434 0072636 248.0877 111.2497 14.83191838276069 CO-55 1 27844U 03031E 26246.01123856 .00000152 00000-0 84690-4 0 9997 2 27844 98.6769 253.6027 0008840 325.9306 34.1304 14.24375838202751 RS-22 1 27939U 03042A 26246.85789014 .00000807 00000-0 13217-3 0 9993 2 27939 98.3488 73.4592 0011894 24.8085 99.7302 14.73586966227132 CO-65 1 32785U 08021C 26246.71984948 .00002748 00000-0 17279-3 0 9996 2 32785 97.8361 229.8437 0010229 116.3849 243.8430 15.10080181997040 CO-66 1 32791U 08021J 26246.47777933 .00012282 00000-0 36152-3 0 9995 2 32791 97.7568 248.2813 0004152 63.8049 296.3620 15.35217426999298 RS-30 1 32953U 08025A 26246.80605618 .00000039 00000-0 20897-3 0 9992 2 32953 82.5043 306.5464 0020489 138.0530 222.2123 12.43182673829467 SRMSAT 1 37841U 11058D 26246.18399727 .00000358 00000-0 50299-4 0 9999 2 37841 19.9724 307.3668 0011772 343.1487 42.0039 14.11590090768850 ZACUBE-1 1 39417U 13066B 26246.38249574 .00003758 00000-0 28870-3 0 9993 2 39417 97.8090 209.1040 0041065 351.6320 8.4214 15.01709534692462 Delfi-N3xt 1 39428U 13066N 26246.72833075 .00004658 00000-0 40005-3 0 9992 2 39428 97.8288 166.9937 0071574 306.2848 53.1775 14.95978886686368 GOMX-1 1 39430U 13066Q 26246.82818251 .00001443 00000-0 22149-3 0 9993 2 39430 97.6444 82.3344 0127790 184.1366 175.8797 14.69663107681466 LO-74 1 39440U 13066AA 26246.29021819 .00002079 00000-0 19326-3 0 9990 2 39440 97.8966 195.6485 0058328 127.1434 233.5134 14.94208892688654 AO-73 1 39444U 13066AE 26246.38537963 .00004338 00000-0 26435-3 0 9995 2 39444 97.8366 219.5526 0033750 299.2079 60.5775 15.10467825691466 DTUSAT-2 1 40030U 14033W 26246.81024939 .00003934 00000-0 20924-3 0 9993 2 40030 98.0921 249.6039 0006917 339.6512 20.4442 15.15909056664590 LILACSAT-2 1 40908U 15049K 26246.89614235 .00012975 00000-0 20255-3 0 9999 2 40908 97.4581 286.8393 0005342 339.3246 20.7790 15.53944203607969 Lapan A3 1 41603U 16040E 26246.89457312 .00002064 00000-0 65868-4 0 9993 2 41603 97.1557 240.5043 0012150 92.8780 267.3854 15.33539601566874 CAS-2T 1 41847U 16066G 26246.63622646 .00000436 00000-0 71328-4 0 9996 2 41847 98.3766 321.4724 0340097 251.4369 104.9601 14.44824748516123 TechnoSat 1 42829U 17042E 26246.36333677 .00001944 00000-0 13951-3 0 9997 2 42829 97.4394 41.1147 0017397 181.4183 178.6998 15.05349721498460 AO-91 1 43017U 17073E 26246.56816977 .00005685 00000-0 24209-3 0 9996 2 43017 97.4583 112.1831 0149186 58.0787 303.4855 15.13750486477246 S-Net D 1 43186U 18014G 26246.69220757 .00002962 00000-0 15194-3 0 9996 2 43186 97.5261 150.9889 0009808 103.0805 257.1524 15.17297445470660 S-Net B 1 43187U 18014H 26246.70525149 .00002607 00000-0 13421-3 0 9999 2 43187 97.5266 150.9905 0010461 99.3291 260.9126 15.17265576470668 S-Net A 1 43188U 18014J 26246.69065765 .00003042 00000-0 15588-3 0 9991 2 43188 97.5277 151.2002 0010364 100.0114 260.2290 15.17305990470669 S-Net C 1 43189U 18014K 26246.18200107 .00002524 00000-0 13008-3 0 9996 2 43189 97.5295 150.7813 0011749 95.5367 264.7206 15.17252693469137 Ten-Koh 1 43677U 18084G 26246.47804383 .00001305 00000-0 10134-3 0 9996 2 43677 98.0757 82.1516 0008685 207.4292 152.6475 15.03215319427925 PO-101 1 43678U 18084H 26246.85405944 .00001092 00000-0 91396-4 0 9992 2 43678 98.1190 86.5253 0010795 266.6410 93.3578 15.00700149428011 QO-100 1 43700U 18090A 26246.60299455 .00000142 00000-0 00000 0 0 9998 2 43700 0.0171 225.7431 0002680 334.4790 25.4064 1.00273407 28460 MinXSS-2 1 43758U 18099A 26246.67902647 .00028842 00000-0 47258-3 0 9998 2 43758 97.4454 325.5518 0005310 340.5809 19.5241 15.52423718426281 AO-95 1 43770U 18099N 26246.62352672 .00006742 00000-0 24758-3 0 9999 2 43770 97.4306 306.6326 0009855 75.0527 285.1803 15.28219276425192 SNUSat 2 1 43782U 18099AA 26246.09020275 .00005167 00000-0 22308-3 0 9993 2 43782 97.3985 298.3037 0010630 31.6896 328.4979 15.22898934424881 SnugLite 1 43784U 18099AC 26246.14121885 .00005809 00000-0 21109-3 0 9991 2 43784 97.3793 299.7066 0003381 44.2458 315.9052 15.28661478425225 ITASat 1 1 43786U 18099AE 26246.58474773 .00003521 00000-0 16669-3 0 9992 2 43786 97.3955 296.5477 0013947 80.8270 279.4543 15.19910914424810 EAGLET 1 1 43790U 18099AJ 26246.08282704 .00002599 00000-0 14875-3 0 9994 2 43790 97.4160 293.6847 0012651 78.7657 281.4996 15.13443589424110 ESEO 1 43792U 18099AL 26246.53596684 .00000239 00000-0 21191-4 0 9990 2 43792 97.3916 280.5574 0013588 68.8225 291.4452 15.04439754423580 JO-97 1 43803U 18099AX 26245.67914214 .00011054 00000-0 31782-3 0 9993 2 43803 97.4050 308.8805 0005070 11.0171 349.1183 15.35966712425511 Suomi 100 1 43804U 18099AY 26246.59494242 .00007647 00000-0 26495-3 0 9998 2 43804 97.4107 306.7573 0009503 12.5372 347.6103 15.30081383425408 ISAT 1 43879U 18111D 26246.78352383 .00244986 00000-0 88785-3 0 9994 2 43879 97.5798 189.1593 0007033 114.4887 245.7119 15.87922249423535 UWE-4 1 43880U 18111E 26245.76187485 .00027654 00000-0 47817-3 0 9994 2 43880 97.5814 177.9955 0009026 57.7499 302.4626 15.50890010422785 Prox-1 1 44339U 19036A 26246.46850933 .00007412 00000-0 68096-3 0 9996 2 44339 23.9959 310.6432 0005000 218.1218 141.8929 14.92262855385171 Taurus 1 1 44530U 19059C 26246.79718844 .00003461 00000-0 54962-3 0 9991 2 44530 98.6496 56.5839 0009415 68.4031 291.8177 14.72804908370218 TO-108 1 44881U 19093C 26246.86494977 -.00000113 00000-0 -67428-5 0 9990 2 44881 97.7464 317.1570 0013201 181.8735 178.2434 14.86618500363109 RS-44 1 44909U 19096E 26246.57545216 .00000009 00000-0 -30063-5 0 9993 2 44909 82.5190 287.6230 0216738 321.3347 37.2403 12.79749121312379 SALSAT 1 46495U 20068K 26246.48051839 .00004593 00000-0 15704-3 0 9993 2 46495 97.8890 254.3854 0010379 37.1076 323.0879 15.30786953327333 CSS (TIANHE-1) 1 48274U 21035A 26246.82758672 .00013897 00000-0 17372-3 0 9992 2 48274 41.4678 204.6008 0002189 256.3390 103.7205 15.59555987305448 TeikyoSat 4 1 49396U 21102B 26246.33510093 .00001018 00000-0 66789-4 0 9991 2 49396 97.3642 272.7780 0012755 31.2259 328.9726 15.09742558264510 Z-Sat 1 49399U 21102E 26246.81075476 .00001819 00000-0 90427-4 0 9993 2 49399 97.3283 279.7536 0015733 338.8723 21.1859 15.18789061265375 KOSEN 1 1 49402U 21102H 26246.10496753 .00004025 00000-0 15068-3 0 9994 2 49402 97.3123 286.7751 0011589 294.2610 65.7419 15.27809841265910 HO-113 1 50466U 21131B 26246.84363024 .00000318 00000-0 11174-3 0 9998 2 50466 98.4971 338.8066 0003400 207.2946 152.8065 14.41418064246442 SNUGLITE 2 1 52899U 22065F 26246.67602941 .00000547 00000-0 11254-3 0 9995 2 52899 98.2314 31.4222 0008425 131.5931 228.5994 14.64469377222486 UmKA 1 (RS40S) 1 57172U 23091G 26246.83107806 .00003517 00000-0 15885-3 0 9996 2 57172 97.4973 305.2365 0011999 197.6406 162.4415 15.21580397175961 CubeBel-2 (EU11S) 1 57175U 23091K 26246.79411036 .00008042 00000-0 27189-3 0 9995 2 57175 97.4972 310.7809 0009249 186.7452 173.3666 15.30869151176320 RS-38S 1 57189U 23091Z 26246.78388132 .00010935 00000-0 29155-3 0 9998 2 57189 97.5018 317.9471 0007814 141.3373 218.8432 15.38304373176768 SONATE-2 1 59112U 24043Q 26246.37449622 .00035776 00000-0 36751-3 0 9991 2 59112 97.5616 41.9712 0005084 269.4796 90.5880 15.64823473140095 GRBBeta 1 60237U 24128C 26246.72112507 .00001490 00000-0 11232-3 0 9996 2 60237 61.9899 300.6277 0029287 151.8919 208.3763 15.07122543118109 Curium One 1 60242U 24128H 26246.08862945 .00003432 00000-0 20158-3 0 9994 2 60242 61.9781 289.6475 0028458 146.3526 213.9385 15.13508312118249 ROBUSTA-3A 1 60243U 24128J 26246.09854805 .00003226 00000-0 19472-3 0 9990 2 60243 61.9862 292.5254 0030382 143.4742 216.8435 15.12623089118207 CatSat 1 60246U 24125J 26246.14532419 .00075992 00000-0 64121-3 0 9990 2 60246 97.1988 100.2197 0014664 243.1526 116.8238 15.69420188119572 AO-123 1 61781U 24199AY 26246.78682597 .00004912 00000-0 13885-3 0 9994 2 61781 97.2872 114.7554 0014395 33.1992 327.0153 15.36703552145992 LASARsat 1 62391U 24247Q 26246.85803100 .00029671 00000-0 49816-3 0 9991 2 62391 44.9716 178.5192 0007635 128.2008 231.9572 15.51280993 95511 CroCube 1 62394U 24247T 26246.09744806 .00034434 00000-0 52350-3 0 9997 2 62394 44.9691 178.6306 0008080 133.3796 226.7771 15.53966732 95449 JINJUSat 1B 1 63210U 25052A 26246.52035645 .00011109 00000-0 32143-3 0 9994 2 63210 97.3879 143.4632 0004260 133.7204 226.4393 15.35767004 82111 NUSHSAT 1 1 63211U 25052B 26246.68279231 .00014086 00000-0 36819-3 0 9994 2 63211 97.3854 144.4968 0003950 132.2518 227.9063 15.38868649 82205 TEVEL2-4 1 63213U 25052D 26246.68770237 .00012092 00000-0 33414-3 0 9991 2 63213 97.3776 143.3077 0003214 139.9121 220.2361 15.37186988 82166 TEVEL2-5 1 63214U 25052E 26246.65300041 .00012222 00000-0 34011-3 0 9990 2 63214 97.3774 143.1962 0003000 141.8350 218.3108 15.36967643 82155 TEVEL2-6 1 63215U 25052F 26246.14624772 .00011694 00000-0 32600-3 0 9999 2 63215 97.3778 142.6725 0002919 143.3877 216.7567 15.36922287 82077 TEVEL2-1 1 63217U 25052H 26246.53038162 .00011978 00000-0 34056-3 0 9998 2 63217 97.3750 142.5831 0002626 154.0661 206.0715 15.36302386 82115 TEVEL2-3 1 63218U 25052J 26246.19605262 .00012274 00000-0 34815-3 0 9995 2 63218 97.3755 142.2819 0002367 151.8455 208.2917 15.36369890 82067 TEVEL2-2 1 63219U 25052K 26246.66036564 .00012088 00000-0 34346-3 0 9993 2 63219 97.3751 142.7177 0002695 155.6658 204.4714 15.36320002 82130 TEVEL2-9 1 63237U 25052AD 26246.15712035 .00010817 00000-0 32976-3 0 9996 2 63237 97.3812 141.4080 0004630 204.4243 155.6781 15.34121893 81978 TEVEL2-7 1 63238U 25052AE 26246.67117507 .00010226 00000-0 31533-3 0 9999 2 63238 97.3813 141.8014 0004651 202.9397 157.1639 15.33776485 82047 TEVEL2-8 1 63239U 25052AF 26245.70148036 .00010200 00000-0 31484-3 0 9991 2 63239 97.3816 140.8072 0004593 208.3804 151.7190 15.33745411 81891 SPIRONE 1 66657U 25274H 26246.76713741 .00001167 00000-0 11519-3 0 9991 2 66657 97.7473 174.9457 0013491 109.7032 250.5645 14.93810836 41955 K-HERO 1 66660U 25274L 26246.28166046 .00001484 00000-0 14358-3 0 9998 2 66660 97.7480 174.6845 0015301 115.6395 244.6408 14.94204974 41890 SNUGLITE-III DURI 1 66661U 25274M 26246.60297743 .00000986 00000-0 97167-4 0 9990 2 66661 97.7478 175.0222 0015873 115.7805 244.5055 14.94215233 41946 SAKHACUBE-CHOLBON 1 67290U 25313AU 26246.60945708 .00005844 00000-0 22869-3 0 9998 2 67290 97.3868 320.7089 0010511 82.2339 278.0093 15.26156283 37931 RS95S (QMR-KWT-2) 1 67291U 25313AV 26246.18322759 .00008267 00000-0 30361-3 0 9995 2 67291 97.3863 320.6591 0009938 81.8454 278.3913 15.28139513 37896 Ten-Koh2 1 68261U 25241B 26246.55793044 .00003260 00000-0 14321-3 0 9999 2 68261 51.6654 306.3832 0007556 42.6075 317.5489 15.24773493 26868 JACK-002 1 68417U 26067B 26246.83887093 .00004554 00000-0 21309-3 0 9999 2 68417 97.4645 204.5366 0002916 46.0726 314.0749 15.20245705 23893 DISCO 2 1 68431U 26067R 26246.60797894 .00004631 00000-0 21741-3 0 9995 2 68431 97.4677 204.3054 0004185 85.0810 275.0903 15.20120074 23858 HADES-SA (SpinnyONE) 1 68446U 26067AG 26246.61112233 .00011215 00000-0 50083-3 0 9997 2 68446 97.4470 203.8990 0007685 143.2877 216.8887 15.21498098 23844 PARUS-6U1 1 68456U 26067AS 26246.83450497 .00003513 00000-0 17488-3 0 9993 2 68456 97.4628 204.0601 0006651 135.9524 224.2241 15.18234760 23860 SAL-E 1 68458U 26067AU 26245.62416420 .00005027 00000-0 24516-3 0 9991 2 68458 97.4554 202.7692 0006563 146.4335 213.7317 15.18741541 23681 FSI-SAT 2 1 68792U 26088A 26246.82983681 .00003484 00000-0 23401-3 0 9993 2 68792 97.5175 34.1947 0013945 193.7732 166.3117 15.07365831 20130 OrigamiSat 2 1 68795U 26088D 26245.65287358 .00007294 00000-0 44793-3 0 9994 2 68795 97.5168 33.4617 0015027 168.4482 191.7096 15.10290910 19983 ARICA 2 1 68796U 26088E 26246.22489248 .00003217 00000-0 20715-3 0 9990 2 68796 97.5172 33.9109 0015810 166.2428 193.9235 15.08962351 20068 WASEDA-SAT-ZERO-II 1 68797U 26088F 26244.94407149 .00004019 00000-0 25477-3 0 9999 2 68797 97.5170 32.6994 0015535 169.4215 190.7344 15.09392027 19879 MANGARO-II-Piscus 1 68798U 26088G 26246.72452594 .00001817 00000-0 11764-3 0 9999 2 68798 97.5178 34.4852 0019165 167.4871 192.6838 15.09261437 20141 CO-128 1 69912U 26156AV 26246.46535466 .00000994 00000-0 10633-3 0 9994 2 69912 97.7491 145.8840 0001779 348.3454 11.7723 14.90917970 8669 MARINA 1 69920U 26156BD 26246.68786536 .00001345 00000-0 13772-3 0 9991 2 69920 97.7458 146.1859 0006712 332.6521 27.4344 14.92127150 8701 IO-86 1 40931U 26199.45381863 .00000000 00000-0 77536-4 0 07 2 40931 6.0006 322.6653 0012733 338.8432 273.6875 14.79294310 03 LILIUM-4 1 71922C 26067AC 26089.50133053 -.00014632 00000 0 -74472-3 0 04 2 71922 97.4497 49.1617 0004341 5.9603 355.7042 15.16896692 16